Flag for Canada Weather past 2 weeks in St. John's, Newfoundland and Labrador, Canada

Now
50 °F

Passing clouds.


Feels Like: 45 °F
Forecast: 54 / 67 °F
Wind: 13 mph from West

Location: St. John's

Current Time: Sep 5, 2015 at 8:32:06 AM

Latest Report: Sep 5, 2015 at 7:30 AM


Visibility: 15 mi

Pressure: 30.06 "Hg

Humidity: 88%

Dew point: 46 °F

Location of St. John'sLocation

Historic Weather in St. John's — Graph

°F

St. John's temperature yesterday

Maximum temperature yesterday: 63 °F (at 12:30 AM)
Minimum temperature yesterday: 48 °F (at 8:30 PM)
Average temperature yesterday: 55 °F

Past Weeks' High & Low Weather Summary

 TemperatureHumidityPressure
High81 °F (Aug 22, 2:30 PM)100% (Aug 21, 7:30 AM)30.36 "Hg (Aug 21, 7:30 AM)
Low43 °F (Sep 5, 4:30 AM)38% (Aug 30, 12:30 PM)29.47 "Hg (Sep 1, 3:30 PM)
Average61 °F85%29.97 "Hg
* Reported Aug 21 7:30 AM — Sep 5 7:30 AM, St. John's, Weather by CustomWeather, © 2015

Note: Actual official high and low records may vary slightly from our data, if they occured in-between our weather recording intervals... More about our weather records

Advertising

St. John's weather history for previous 24 hours

 ConditionsComfort  
Time TempWeatherWind HumidityBarometerVisibility
7:30 AM
Sat, Sep 5
50 °FPassing clouds.13 mph88%30.06 "Hg15 mi
6:30 AM46 °FPassing clouds.10 mph93%30.04 "Hg15 mi
5:30 AM45 °FClear.14 mph93%30.04 "Hg15 mi
4:30 AM43 °FClear.12 mph93%30.04 "Hg15 mi
3:30 AM45 °FClear.12 mph81%30.05 "Hg15 mi
2:30 AM45 °FClear.13 mph81%30.05 "Hg15 mi
1:30 AM45 °FClear.7 mph71%30.05 "Hg15 mi
12:30 AM46 °FClear.9 mph76%30.05 "Hg15 mi
11:30 PM
Fri, Sep 4
48 °FPassing clouds.13 mph76%30.05 "Hg15 mi
10:30 PM48 °FOvercast.17 mph82%30.03 "Hg15 mi
9:30 PM48 °FOvercast.16 mph82%30.03 "Hg15 mi
8:30 PM48 °FOvercast.16 mph82%30.02 "Hg15 mi
7:30 PM50 °FPartly sunny.20 mph76%29.98 "Hg15 mi
6:30 PM52 °FPartly sunny.21 mph72%29.97 "Hg15 mi
5:30 PM54 °FOvercast.16 mph67%29.96 "Hg15 mi
4:30 PM54 °FOvercast.16 mph72%29.94 "Hg15 mi
3:30 PM54 °FOvercast.16 mph72%29.93 "Hg15 mi
2:30 PM55 °FMore clouds than sun.15 mph72%29.91 "Hg15 mi
1:30 PM59 °FPartly sunny.18 mph63%29.89 "Hg15 mi
12:30 PM54 °FOvercast.20 mph72%29.89 "Hg15 mi
11:30 AM55 °FPartly sunny.20 mph67%29.87 "Hg15 mi
10:30 AM55 °FBroken clouds.15 mph77%29.85 "Hg15 mi
9:30 AM59 °FPartly sunny.20 mph72%29.82 "Hg15 mi
8:30 AM57 °FBroken clouds.20 mph82%29.79 "Hg15 mi
Weather by CustomWeather, © 2015

See weather overviewHow to use our weather pages